Waarnemingen

Advertentie
Mijn weer
J6-A, Nederland (6211): temperatuur & dauwpunt: 08.08.2018 08:00:00 - 14.08.2018 08:00:00 (CEST)J6-A, Nederland (6211): windsnelheid & windstoten: 08.08.2018 08:00:00 - 14.08.2018 08:00:00 (CEST)J6-A, Nederland (6211): windrichting: 08.08.2018 08:00:00 - 14.08.2018 08:00:00 (CEST)J6-A, Nederland (6211): luchtdruk: 08.08.2018 08:00:00 - 14.08.2018 08:00:00 (CEST)J6-A, Nederland (6211): zicht: 08.08.2018 08:00:00 - 14.08.2018 08:00:00 (CEST)
Datum & Tijd tt [°C] td [°C] ff [km/u] ff [kn] fx [km/u] fx [kn] dd ppp [hPa] vv [km]
14.08.2018 08:00:00 16,9 14,3 37 20 36 19 WNW 1011,0 10
14.08.2018 07:00:00 16,9 14,4 41 22 40 21 WNW 1010,3 10
14.08.2018 06:00:00 17,0 14,6 39 21 40 21 WNW 1009,6 10
14.08.2018 05:00:00 17,1 14,5 42 23 40 21 NW 1009,2 10
14.08.2018 04:00:00 17,2 15,0 44 24 43 23 NW 1008,6 10
14.08.2018 03:00:00 17,2 15,3 42 23 43 23 NW 1008,1 10
14.08.2018 02:00:00 17,3 15,6 44 24 43 23 NW 1007,6 10
14.08.2018 01:00:00 17,4 15,7 44 24 43 23 NW 1007,0 10
14.08.2018 00:00:00 17,3 15,7 44 24 47 25 NW 1006,5 10
13.08.2018 23:00:00 17,0 16,4 41 22 43 23 WNW 1006,2 -
13.08.2018 22:00:00 16,8 16,2 31 17 32 18 W 1006,0 10
13.08.2018 21:00:00 16,8 16,2 28 15 29 16 W 1005,5 7
13.08.2018 20:00:00 16,8 16,5 26 14 25 14 W 1005,1 7
13.08.2018 19:00:00 16,7 16,3 26 14 25 14 W 1005,0 7
13.08.2018 18:00:00 16,4 16,1 22 12 22 12 W 1005,1 10
13.08.2018 17:00:00 16,2 15,8 18 10 22 12 W 1004,9 10
13.08.2018 16:00:00 16,4 15,8 13 7 14 8 W 1005,0 10
13.08.2018 15:00:00 16,3 15,9 9 5 11 6 W 1005,1 10
13.08.2018 14:00:00 16,3 16,0 8 4 7 4 W 1005,1 6
13.08.2018 13:00:00 16,3 15,5 9 5 11 6 WNW 1005,0 10
13.08.2018 12:00:00 16,3 15,7 9 5 11 6 WNW 1005,0 10
13.08.2018 11:00:00 16,2 15,5 8 4 11 6 WNW 1004,7 10
13.08.2018 10:00:00 16,1 15,6 5 3 7 4 WNW 1004,9 10
13.08.2018 09:00:00 16,1 15,6 4 2 14 8 N 1005,0 10
13.08.2018 08:00:00 16,3 15,2 2 1 7 4 NNO 1004,9 10
13.08.2018 07:00:00 16,8 14,7 8 4 11 6 WZW 1004,9 10
13.08.2018 06:00:00 17,4 14,2 8 4 18 10 ZW 1005,0 10
13.08.2018 05:00:00 17,6 15,8 15 8 14 8 ZW 1005,3 10
13.08.2018 04:00:00 18,0 16,4 8 4 11 6 Z 1005,9 10
13.08.2018 03:00:00 17,9 16,8 13 7 25 14 ZO 1006,2 10
13.08.2018 02:00:00 17,8 16,3 13 7 25 14 ZO 1006,5 10
13.08.2018 01:00:00 17,7 15,8 15 8 25 14 OZO 1006,9 10
13.08.2018 00:00:00 17,0 15,6 21 11 25 14 ONO 1007,1 10
12.08.2018 23:00:00 16,8 15,9 9 5 14 8 - 1007,9 10
12.08.2018 22:00:00 16,8 15,7 5 3 11 6 WZW 1008,2 10
12.08.2018 21:00:00 16,8 15,6 15 8 18 10 W 1008,3 10
12.08.2018 20:00:00 17,1 15,2 18 10 22 12 WZW 1008,5 10
12.08.2018 19:00:00 17,1 15,5 26 14 29 16 WZW 1008,9 10
12.08.2018 18:00:00 17,6 15,9 22 12 29 16 ZW 1009,2 10
12.08.2018 17:00:00 18,3 17,0 31 17 29 16 ZZW 1009,5 10
12.08.2018 16:00:00 18,5 16,9 34 18 36 19 ZZW 1009,9 10
12.08.2018 15:00:00 18,4 15,7 31 17 32 18 ZZW 1010,2 10
12.08.2018 14:00:00 18,1 15,8 37 20 40 21 ZZW 1010,3 10
12.08.2018 13:00:00 17,9 15,7 34 18 36 19 ZW 1010,6 10
12.08.2018 12:00:00 18,2 16,5 35 19 36 19 Z 1010,7 10
12.08.2018 11:00:00 18,0 16,0 35 19 36 19 Z 1011,3 10
12.08.2018 10:00:00 17,5 16,1 39 21 36 19 Z 1011,6 10
12.08.2018 09:00:00 16,7 16,0 37 20 40 21 ZW 1012,2 -
12.08.2018 08:00:00 16,6 16,4 37 20 40 21 ZZW 1012,6 -
12.08.2018 07:00:00 16,7 16,5 26 14 32 18 Z 1013,1 -
12.08.2018 06:00:00 15,6 15,3 37 20 47 25 ZW 1013,7 -
12.08.2018 05:00:00 16,7 15,8 31 17 32 18 ZZW 1014,5 -
12.08.2018 04:00:00 16,4 14,5 34 18 40 21 ZZW 1015,3 -
12.08.2018 03:00:00 17,5 14,2 34 18 32 18 Z 1016,0 10
12.08.2018 02:00:00 17,3 13,3 35 19 36 19 Z 1017,0 10
12.08.2018 01:00:00 17,3 12,9 31 17 32 18 Z 1017,7 10
12.08.2018 00:00:00 17,2 11,8 29 16 29 16 Z 1018,4 10
11.08.2018 23:00:00 17,2 11,7 29 16 29 16 Z 1019,1 10
11.08.2018 22:00:00 16,8 12,5 28 15 29 16 Z 1019,5 10
11.08.2018 21:00:00 16,6 10,5 21 11 22 12 Z 1019,9 10
11.08.2018 20:00:00 16,2 9,1 8 4 18 10 ZW 1020,1 10
11.08.2018 19:00:00 16,1 8,3 21 11 22 12 ZW 1020,6 10
11.08.2018 18:00:00 15,8 8,5 24 13 25 14 WZW 1020,6 10
11.08.2018 17:00:00 15,4 9,9 26 14 29 16 WZW 1020,9 10
11.08.2018 16:00:00 15,2 10,7 24 13 29 16 WZW 1021,0 10
11.08.2018 15:00:00 15,2 11,7 28 15 29 16 WZW 1021,0 10
11.08.2018 14:00:00 15,1 11,5 28 15 29 16 W 1020,9 10
11.08.2018 13:00:00 15,1 12,0 35 19 40 21 W 1020,6 10
11.08.2018 12:00:00 15,5 12,7 35 19 36 19 W 1020,3 10
11.08.2018 11:00:00 15,7 11,4 35 19 36 19 W 1020,1 10
11.08.2018 10:00:00 15,7 11,0 35 19 36 19 W 1019,5 10
11.08.2018 09:00:00 15,6 11,0 35 19 40 21 W 1018,8 10
11.08.2018 08:00:00 15,6 11,0 41 22 40 21 W 1018,3 10
11.08.2018 07:00:00 15,6 10,5 41 22 40 21 W 1017,8 10
11.08.2018 06:00:00 15,3 11,1 37 20 43 23 WNW 1017,4 10
11.08.2018 05:00:00 15,6 10,3 46 25 47 25 WNW 1016,9 10
11.08.2018 04:00:00 14,0 10,4 16 9 43 23 N 1017,3 10
11.08.2018 03:00:00 15,1 10,2 46 25 47 25 W 1016,6 10
11.08.2018 02:00:00 15,8 10,5 41 22 47 25 W 1016,1 10
11.08.2018 01:00:00 15,3 10,4 48 26 50 27 W 1016,0 10
11.08.2018 00:00:00 15,7 9,9 48 26 47 25 W 1015,5 10
10.08.2018 23:00:00 15,0 11,0 41 22 40 21 W 1015,3 10
10.08.2018 22:00:00 14,7 8,9 28 15 32 18 W 1015,3 10
10.08.2018 21:00:00 13,7 10,2 18 10 36 19 W 1015,3 10
10.08.2018 20:00:00 14,6 9,8 24 13 29 16 ZW 1015,1 10
10.08.2018 19:00:00 14,7 10,5 21 11 29 16 Z 1015,4 10
10.08.2018 18:00:00 13,4 12,4 41 22 43 23 Z 1016,1 10
10.08.2018 17:00:00 16,1 11,4 26 14 29 16 Z 1016,3 10
10.08.2018 16:00:00 16,7 10,1 18 10 36 19 ZZW 1016,3 10
10.08.2018 15:00:00 16,3 9,5 37 20 40 21 ZZW 1016,9 10
10.08.2018 14:00:00 16,0 9,9 39 21 40 21 ZW 1016,7 10
10.08.2018 13:00:00 16,2 9,6 41 22 40 21 ZW 1016,6 10
10.08.2018 12:00:00 16,3 9,7 39 21 40 21 ZW 1016,1 10
10.08.2018 11:00:00 16,2 10,1 26 14 29 16 WZW 1015,7 10
10.08.2018 10:00:00 16,1 9,4 28 15 32 18 WZW 1015,6 10
10.08.2018 09:00:00 16,0 9,0 35 19 36 19 WZW 1015,1 10
10.08.2018 08:00:00 16,1 8,9 37 20 43 23 WZW 1014,7 10
10.08.2018 07:00:00 16,2 9,2 42 23 43 23 WZW 1014,6 10
10.08.2018 06:00:00 16,1 9,7 44 24 47 25 WZW 1013,7 10
10.08.2018 05:00:00 16,5 12,5 50 27 50 27 WZW 1013,8 10
10.08.2018 04:00:00 16,5 11,4 39 21 47 25 WZW 1013,6 10
10.08.2018 03:00:00 14,9 11,3 26 14 29 16 W 1013,6 10
10.08.2018 02:00:00 14,3 10,8 37 20 43 23 WNW 1013,1 10
10.08.2018 01:00:00 15,1 10,1 50 27 54 29 WNW 1012,4 10
10.08.2018 00:00:00 14,2 9,6 59 32 61 33 WNW 1011,4 10
09.08.2018 23:00:00 15,3 11,7 55 30 58 31 NW 1009,9 8
09.08.2018 22:00:00 15,0 10,4 61 33 61 33 NW 1010,2 6
09.08.2018 21:00:00 15,3 13,1 63 34 61 33 NW 1009,7 -
09.08.2018 20:00:00 15,1 13,5 57 31 61 33 NW 1009,3 -
09.08.2018 19:00:00 15,7 14,2 57 31 61 33 NW 1008,8 -
09.08.2018 18:00:00 16,0 14,7 57 31 58 31 NW 1008,9 -
09.08.2018 17:00:00 17,2 14,5 29 16 32 18 N 1009,6 10
09.08.2018 16:00:00 17,9 15,2 24 13 32 18 NNO 1010,5 10
09.08.2018 15:00:00 17,9 14,4 35 19 36 19 NNO 1011,2 10
09.08.2018 14:00:00 17,6 14,1 26 14 29 16 NNO 1012,0 10
09.08.2018 13:00:00 17,5 13,6 28 15 29 16 N 1012,0 10
09.08.2018 12:00:00 17,2 14,0 28 15 32 18 NNW 1012,3 10
09.08.2018 11:00:00 17,8 14,6 22 12 29 16 N 1013,1 10
09.08.2018 10:00:00 18,0 14,6 16 9 25 14 NNW 1012,8 10
09.08.2018 09:00:00 17,7 16,1 13 7 11 6 N 1012,6 10
09.08.2018 08:00:00 18,0 16,8 11 6 11 6 NNO 1012,1 10
09.08.2018 07:00:00 17,9 17,0 8 4 14 8 N 1012,3 10
09.08.2018 06:00:00 18,1 17,3 5 3 11 6 ZW 1012,1 10
09.08.2018 05:00:00 18,2 17,0 13 7 18 10 Z 1012,6 10
09.08.2018 04:00:00 18,2 16,6 18 10 22 12 Z 1012,9 10
09.08.2018 03:00:00 18,3 16,6 22 12 22 12 Z 1013,0 10
09.08.2018 02:00:00 18,3 16,5 24 13 25 14 Z 1013,0 10
09.08.2018 01:00:00 18,4 16,5 28 15 25 14 Z 1013,2 10
09.08.2018 00:00:00 18,5 15,9 26 14 25 14 Z 1013,2 10
08.08.2018 23:00:00 18,3 15,5 28 15 29 16 ZZO 1013,1 10
08.08.2018 22:00:00 18,1 14,6 29 16 29 16 ZZO 1013,2 10
08.08.2018 21:00:00 18,3 13,8 24 13 25 14 ZZO 1012,5 10
08.08.2018 20:00:00 18,1 12,8 22 12 22 12 ZZO 1012,3 10
08.08.2018 19:00:00 18,4 12,2 15 8 14 8 Z 1012,0 10
08.08.2018 18:00:00 18,1 12,0 16 9 22 12 ZW 1012,0 10
08.08.2018 17:00:00 17,5 12,0 22 12 32 18 WZW 1011,6 10
08.08.2018 16:00:00 17,1 9,9 37 20 36 19 WZW 1011,1 10
08.08.2018 15:00:00 16,7 11,1 42 23 40 21 WZW 1010,6 10
08.08.2018 14:00:00 16,4 12,0 42 23 43 23 WZW 1009,6 10
08.08.2018 13:00:00 16,5 12,2 39 21 40 21 W 1008,5 10
08.08.2018 12:00:00 16,5 13,8 39 21 40 21 W 1007,5 10
08.08.2018 11:00:00 17,1 14,3 44 24 43 23 W 1006,4 10
08.08.2018 10:00:00 17,7 15,5 37 20 40 21 W 1005,5 10
08.08.2018 09:00:00 18,1 16,9 34 18 32 18 W 1004,8 10
08.08.2018 08:00:00 18,4 17,2 26 14 29 16 WZW 1004,3 9

tt = temperatuur
td = dauwpunt
ff = windsnelheid
fx = windstoten
dd = windrichting
ppp = luchtdruk
vv = zicht

Weerstations in de omgeving